sat.trackr.live / text

‹ back to catalog

STARLINK-3095

NORAD 49160 · 2021-082AG

PAYLOAD ACTIVE UNKNOWN

§ Identity

Operator
Country
US
Launch date
2021-09-14
Launch site
AFWTR
Launch vehicle
Mass (kg)
RCS (m²)

Purposes: comms

External: N2YO · Heavens-Above · Gunter

§ Orbital elements

Epoch: 2026-09-20T03:33:24.427296Z

Period
96.11 min
Inclination
69.9999°
Eccentricity
0.0002965
Mean motion
14.98330407 rev/d
Perigee alt
570.0 km
Apogee alt
574.1 km
Semi-major
6,950.2 km
B*
8.4251e-5
RAAN
164.1396°
Arg perigee
272.1897°
Mean anomaly
87.8922°
Rev number
27,617

§ Raw data

STARLINK-30951 49160U 21082AG  26263.14819939  .00000912  00000+0  84251-4 0  99912 49160  69.9999 164.1396 0002965 272.1897  87.8922 14.98330407276179

JSON: /api/v1/satellites/49160 · /tle

For live sub-satellite position, see the globe view (requires WebGL).

§ Visibility from observer

Set your observer location to see the next 7 days of passes ≥ 10°. The values pass through the URL so the page stays shareable.

No JS? Fill the form by hand. The geolocation button needs JavaScript.